SCP
1 1 1 1 1 0 0 0 0 0 0 0 0 0 0 0 0 0 0 0 0 0 0 0 0 0 0 0 1 1 1 1 1 1 1 0 0 0 0 0 0 0 0
1 0 0 0 0 0 0 0 0 0 0 0 0 0 0 0 0 0 0 0 0 0 0 0 0 0 0 0 1 1 1 1 1 0 1 1 0 0 0 0 0 0 0
0 0 0 0 0 0 0 0 1 1 1 0 0 0 0 0 0 0 0 0 0 0 0 0 0 0 0 0 0 1 1 0 0 0 0 1 1 0 0 1 1 1 0
0 0 0 0 0 1 1 1 1 1 1 1 1 1 1 1 0 0 0 0 0 0 0 0 0 0 0 0 0 0 0 0 0 0 0 1 1 0 0 1 1 1 1
0 0 0 0 1 1 1 1 1 1 1 1 1 1 1 1 1 0 0 0 0 0 0 0 0 0 0 0 0 0 0 0 0 0 0 0 0 0 0 1 1 1 1
0 0 0 0 0 0 1 1 1 1 1 1 1 1 1 1 1 0 0 1 1 0 0 0 0 0 0 0 0 0 0 0 0 0 0 0 0 0 0 0 1 1 1
0 0 0 0 0 0 0 1 1 1 1 1 1 1 1 1 1 0 0 1 1 1 1 1 0 0 0 0 0 0 0 0 0 0 0 0 0 0 0 0 1 1 1
0 0 0 0 0 0 0 0 1 1 1 1 1 1 1 1 1 0 0 1 1 1 1 1 1 1 0 0 0 0 0 0 0 0 0 0 0 0 0 0 0 0 1
0 0 0 0 0 0 0 0 0 0 0 1 1 1 1 1 0 0 0 1 1 1 1 1 1 0 0 0 0 0 0 0 0 0 0 0 0 0 0 0 0 0 0
0 0 0 0 0 0 0 0 0 0 0 0 0 0 0 0 0 0 0 1 1 1 1 1 0 0 0 0 0 0 0 0 0 0 0 0 0 0 0 0 0 0 0
0 0 0 0 0 0 0 0 0 0 0 0 0 0 0 0 0 0 0 1 1 1 1 1 0 0 0 0 0 0 0 0 1 1 0 0 0 0 0 0 0 0 0
0 0 0 0 0 0 0 0 0 0 0 0 0 0 0 0 0 0 0 0 0 1 1 1 0 0 0 0 0 0 0 0 1 1 1 0 0 0 0 0 0 0 0
0 0 0 0 0 0 0 0 0 0 0 0 0 0 0 0 0 0 0 0 0 0 0 0 0 0 0 0 0 0 0 0 1 1 0 0 0 0 0 0 0 0 0
0 0 0 0 0 0 0 0 0 0 0 0 0 0 0 0 0 0 0 0 0 0 0 0 0 0 0 0 0 0 0 1 1 0 0 0 0 0 0 0 0 0 0
0 0 0 0 0 0 0 0 0 0 0 0 0 0 0 0 0 0 0 0 0 0 0 0 0 0 0 0 1 1 1 0 0 0 0 0 0 0 0 0 0 0 0
0 0 0 0 0 0 0 0 0 0 0 0 0 0 0 0 0 0 0 0 0 0 0 0 0 0 0 0 0 0 0 0 0 0 0 0 0 0 0 0 0 0 0
0 0 0 0 0 0 0 0 0 0 0 0 0 0 0 0 0 0 0 0 0 0 0 0 0 0 0 0 0 0 0 0 0 0 0 0 0 0 0 0 0 0 0
0 0 0 0 0 0 0 0 0 0 0 0 0 0 0 0 0 0 0 0 0 0 0 0 0 0 0 0 0 0 0 0 0 0 0 0 0 0 0 0 0 0 0
0 0 0 0 0 0 0 0 0 0 0 0 0 0 0 0 0 0 0 0 0 0 0 0 0 0 0 0 0 0 0 0 0 0 0 0 0 0 0 0 0 0 0
0 0 0 0 0 0 0 0 0 0 0 0 0 0 0 0 0 0 0 0 0 0 0 0 0 0 0 0 0 0 0 0 0 0 0 0 0 0 0 0 0 0 0
0 0 0 0 0 0 0 0 0 0 0 0 0 0 0 0 0 0 0 0 0 0 0 0 0 0 0 0 0 0 0 0 0 0 0 0 0 0 0 0 0 0 0
0 0 0 0 0 0 0 0 0 0 0 0 0 0 0 0 0 0 0 0 0 0 0 0 0 0 0 0 0 0 0 0 0 0 0 0 0 0 0 0 0 0 0
0 0 0 0 0 0 0 0 0 0 0 0 0 0 0 0 0 0 0 0 0 0 0 0 0 0 0 0 0 0 0 0 0 0 0 0 0 0 0 0 0 0 0
0 0 0 0 0 0 0 0 0 0 0 0 0 0 0 0 0 0 0 0 0 0 0 0 0 0 0 0 0 0 0 0 0 0 0 0 0 0 0 0 0 0 0
0 0 0 0 0 0 0 0 0 0 0 0 0 0 0 0 0 0 0 0 0 0 0 0 0 0 0 0 0 0 0 0 0 0 0 0 0 0 0 0 0 0 0
0 0 0 0 0 0 0 0 0 0 0 0 0 0 0 0 0 0 0 0 0 0 0 0 0 0 0 0 0 0 0 0 0 0 0 0 0 0 0 0 0 0 0
Wind_Speed
3 2 2 2 3 4 5 5 5 5 5 5 5 5 5 5 5 4 4 4 5 5 6 6 7 7 6 6 7 7 7 7 8 5 4 4 5 6 5 8 9 9 10
0 1 2 2 4 5 5 5 5 5 5 5 5 5 4 4 4 4 4 4 4 5 5 6 6 5 7 7 6 8 7 8 8 9 6 5 7 7 6 7 7 8 8
2 1 2 2 2 2 2 2 3 4 4 4 5 5 5 5 5 5 5 5 5 5 5 5 5 6 6 6 7 7 6 7 7 7 6 4 4 4 5 6 7 7 8
4 4 3 3 2 2 2 1 1 2 3 4 4 5 5 6 6 6 6 5 5 5 5 5 5 5 5 5 5 6 6 6 7 7 6 4 4 3 4 6 6 7 7
7 7 6 5 4 3 3 1 0 1 2 3 4 5 5 5 5 6 6 7 6 6 6 6 4 3 5 5 4 4 4 4 4 5 5 4 5 4 5 5 6 5 6
9 9 8 7 6 5 4 3 2 0 1 2 3 4 4 3 2 3 8 7 7 7 6 6 4 6 7 7 6 6 6 4 3 3 3 4 5 5 4 4 4 4 4
10 10 9 8 7 7 6 5 4 3 2 2 1 1 2 2 5 5 8 9 8 7 7 6 4 4 5 6 7 8 7 5 4 4 3 3 3 4 5 5 4 3 2
11 10 10 9 9 8 8 7 6 6 5 5 5 4 4 7 9 6 6 9 7 7 6 6 6 6 4 4 4 4 3 2 2 4 2 1 1 2 3 3 3 2 1
11 10 10 10 9 9 9 8 7 7 7 6 6 7 6 8 12 10 8 4 4 5 4 5 5 6 5 1 7 5 3 2 2 2 3 2 3 3 3 3 3 2 2
10 9 9 9 9 9 9 8 7 6 6 6 7 7 7 8 13 14 12 3 2 2 2 2 1 3 3 3 7 5 4 2 2 4 5 6 5 6 7 5 3 3 2
7 8 8 8 8 8 8 7 7 6 6 6 6 6 7 8 10 13 13 5 4 2 1 1 1 2 2 3 7 5 2 3 2 2 2 1 2 2 4 4 4 3 3
5 6 7 7 7 6 7 7 7 7 6 7 6 6 6 6 8 10 11 10 9 3 2 2 2 3 2 1 2 2 1 2 2 1 0 1 1 1 0 0 1 2 2
4 5 5 6 6 7 7 7 6 6 6 6 6 6 6 6 6 7 7 7 8 4 4 5 5 2 1 2 4 2 2 1 1 0 1 2 2 1 1 1 1 1 1
4 4 4 5 6 6 5 5 6 6 6 6 6 6 6 6 7 7 6 5 4 3 3 3 3 4 3 4 3 2 2 3 2 2 2 2 1 1 1 1 1 0 1
3 4 4 5 5 5 5 5 5 6 6 6 5 5 6 7 9 11 7 6 6 5 4 3 3 3 4 4 4 4 3 3 3 3 2 2 1 2 2 1 1 1 1
3 4 4 4 4 4 4 5 5 4 6 8 9 8 6 7 8 9 11 11 9 7 5 6 6 5 5 5 5 4 4 4 4 3 3 3 2 2 2 1 1 1 1
3 3 3 3 4 4 4 4 5 5 5 8 11 12 12 11 10 10 9 10 12 9 7 7 7 6 6 6 5 5 5 5 4 4 4 3 3 2 2 2 2 2 2
3 3 3 3 3 4 4 4 4 4 4 5 7 10 10 11 12 11 9 7 9 9 8 7 7 6 6 6 6 5 5 5 5 5 4 4 4 3 3 3 3 3 3
2 2 3 3 3 3 3 3 4 5 4 4 4 5 6 5 8 10 8 8 7 7 7 7 7 6 6 6 6 5 5 5 6 5 5 5 5 4 4 4 3 3 3
3 3 1 2 2 3 3 3 3 4 4 4 5 5 5 5 6 7 7 7 6 6 6 6 6 6 6 6 5 5 5 5 5 5 5 5 5 4 4 4 4 4 3
3 4 3 1 2 2 2 2 3 3 4 4 4 5 6 4 5 6 6 6 6 6 5 5 5 5 5 5 5 5 6 5 5 5 4 4 5 4 4 4 4 4 4
3 3 3 2 2 2 2 2 2 2 3 3 3 3 2 3 4 4 4 4 4 4 4 4 4 4 5 5 5 5 5 5 5 5 5 4 4 4 4 4 4 4 5
3 3 3 2 2 3 2 2 1 1 2 2 2 2 2 3 3 3 3 4 4 4 4 4 4 4 4 4 4 4 5 5 4 5 5 5 4 4 4 4 5 5 5
4 4 3 3 3 2 2 2 2 1 1 1 2 2 2 2 2 3 3 3 3 4 3 3 4 5 6 5 4 4 6 6 6 3 4 4 4 4 4 4 5 6 5
4 4 4 3 3 3 3 3 2 2 2 1 1 2 2 2 2 2 2 2 3 3 4 3 3 4 5 6 7 7 7 7 7 7 4 4 5 5 5 5 5 5 5
5 5 4 4 4 4 3 3 3 3 2 2 2 2 2 2 2 2 1 1 2 2 3 3 4 4 5 5 7 8 7 6 7 8 5 4 5 6 5 4 5 5 6
Wind_Direction
95 110 136 176 207 217 220 215 202 190 187 184 186 191 177 178 178 183 214 207 225 226 228 238 243 241 237 234 231 230 226 226 241 241 224 249 235 235 196 222 222 203 198
63 154 170 184 204 208 205 202 193 185 186 189 177 190 177 184 191 200 207 216 228 239 238 241 246 245 244 241 233 229 227 225 234 244 228 224 237 247 238 222 221 221 221
36 109 129 145 162 171 167 171 188 185 184 194 197 203 195 203 207 215 220 223 228 240 247 250 254 251 252 246 242 239 233 230 228 238 237 216 227 234 237 235 229 225 230
56 66 66 65 64 74 84 120 179 200 206 213 215 221 218 219 225 227 229 235 237 237 242 248 255 258 262 265 258 254 245 238 230 230 230 213 205 213 226 227 225 214 222
55 53 50 52 49 47 52 46 77 257 252 247 241 240 236 237 240 246 241 239 239 235 234 235 242 303 336 307 300 292 273 252 238 229 226 212 199 186 211 223 231 221 223
52 49 46 48 47 44 43 37 41 36 267 252 247 246 247 254 4 303 273 249 242 235 234 234 210 215 221 231 261 289 300 290 278 247 231 226 219 208 203 210 222 216 220
54 52 49 52 53 50 53 55 51 52 50 35 352 306 287 14 357 292 263 265 250 246 245 236 222 232 241 237 205 219 232 236 269 289 263 241 226 206 194 202 211 221 217
53 52 50 52 55 55 55 54 51 52 53 43 36 32 37 33 9 340 295 256 249 242 241 248 240 238 230 285 267 246 252 212 222 258 280 280 215 183 195 195 184 176 119
50 49 50 52 52 52 53 51 49 53 55 52 45 40 38 32 17 3 328 267 252 244 239 248 261 262 101 297 274 268 259 233 174 250 336 24 92 123 147 159 162 171 191
46 48 49 48 47 47 47 45 47 52 53 59 55 44 36 30 21 12 350 322 291 259 232 221 92 330 34 262 263 265 264 249 223 196 205 201 205 189 195 216 200 200 201
47 48 47 46 45 42 42 40 41 46 46 45 48 44 37 26 20 17 7 357 348 321 275 248 91 53 320 277 272 281 337 329 274 255 239 203 196 198 206 229 231 232 235
48 48 46 42 38 37 40 38 36 33 40 38 35 36 29 27 19 13 13 12 349 348 358 358 52 44 12 325 277 46 59 263 270 263 202 113 97 92 95 215 234 233 242
50 46 43 49 47 38 37 38 38 34 33 32 27 22 18 16 17 12 15 17 0 3 35 37 36 28 196 117 80 84 195 199 178 151 89 77 62 69 90 111 145 180 174
45 41 42 47 56 58 48 44 43 35 32 29 22 15 10 16 15 5 3 15 16 31 54 74 85 66 69 74 97 95 71 56 46 71 81 90 103 102 75 38 41 290 207
48 55 54 57 59 66 70 49 43 51 28 12 9 5 7 12 10 3 7 16 14 16 15 50 54 63 67 70 68 63 60 71 69 69 77 82 84 84 76 52 18 353 349
45 51 52 59 63 66 85 105 84 52 41 33 24 11 40 32 18 33 38 34 26 16 43 56 52 51 51 50 51 55 52 49 50 51 54 53 50 54 63 66 30 343 328
53 62 62 54 63 67 66 71 100 119 110 67 45 39 40 39 41 38 39 45 37 37 54 51 46 43 42 43 41 43 42 36 35 42 42 40 37 36 36 33 16 354 336
85 78 70 72 66 68 70 67 63 67 81 83 73 54 45 46 42 32 24 48 51 46 47 46 44 41 39 38 37 37 36 34 32 35 36 31 25 25 25 16 11 3 347
117 103 90 86 87 83 84 82 79 75 69 60 63 71 54 62 61 43 35 50 51 47 44 42 38 35 35 34 32 32 34 31 26 24 24 18 13 11 14 10 8 9 342
112 84 82 119 117 105 97 89 82 78 74 65 50 37 37 43 45 45 44 45 46 45 41 40 35 31 28 26 24 22 29 30 23 21 17 13 10 9 10 5 357 352 353
140 139 169 167 110 102 97 89 83 80 76 73 65 43 15 47 51 48 44 40 38 37 36 35 34 27 23 22 20 20 23 23 18 12 11 9 5 4 3 1 358 356 352
158 154 159 127 128 129 113 104 88 83 86 91 98 95 52 53 59 56 51 47 44 41 36 34 37 32 22 19 16 15 17 17 11 3 359 359 1 360 359 3 4 3 4
177 169 168 160 158 148 188 154 136 110 101 98 97 90 76 66 67 59 53 48 45 42 39 40 44 38 30 26 19 11 8 7 359 351 348 354 1 5 3 8 12 14 17
191 191 192 184 185 194 192 183 178 162 136 126 124 117 104 93 79 66 56 52 52 54 50 46 43 38 33 27 22 24 19 0 344 350 357 356 3 6 10 14 16 17 18
207 202 204 204 198 201 202 201 202 195 190 188 168 152 146 134 114 94 73 65 62 64 59 48 42 36 31 34 32 30 19 6 2 349 359 18 24 23 23 25 26 25 26
216 210 208 206 207 209 211 212 211 208 206 196 190 182 175 159 141 131 120 100 85 83 71 60 48 40 30 37 39 28 21 20 13 352 355 37 40 34 29 41 42 41 41